[TLELIST]

  • This mailing list is a public mailing list - anyone may join or leave, at any time.
  • This mailing list is announce-only.

International Space Station (ISS) / Hubble Space Telescope (HST) / Chandra X-Ray Observatory Orbital Data via EMAIL

Privacy Policy:

Private list

Archived Messages

 

[TLELIST] Current TLEs

December 20th 2025 PST

0 HST 1 20580U 90037B 25352.01685449 .00005616 00000-0 19114-3 0 9995 2 20580 28.4674 236.5696 0001951 306.2349 53.8065 15.28122551760808 0 ISS (ZARYA) 1 25544U 98067A 25354.21533065 .00006989 00000-0 13177-3 0 9998 2 25544 51.6321 105.4589 0003199 275.1086 84.9538 15.49679666544013 0 CXO 1 25867U 99040B 25354.55178789 .00000629 00000-0 00000-0 0 9996 2 25867 53.1580 122.2771 8124205 310.8135 0.2560 0.37797284 16644 ...Continue Reading

[TLELIST] Current TLEs

December 20th 2025 PST

0 HST 1 20580U 90037B 25352.01685449 .00005616 00000-0 19114-3 0 9995 2 20580 28.4674 236.5696 0001951 306.2349 53.8065 15.28122551760808 0 ISS (ZARYA) 1 25544U 98067A 25354.21533065 .00006989 00000-0 13177-3 0 9998 2 25544 51.6321 105.4589 0003199 275.1086 84.9538 15.49679666544013 0 CXO 1 25867U 99040B 25354.55178789 .00000629 00000-0 00000-0 0 9996 2 25867 53.1580 122.2771 8124205 310.8135 0.2560 0.37797284 16644 ...Continue Reading

[TLELIST] Current TLEs

December 19th 2025 PST

0 HST 1 20580U 90037B 25352.01685452 .00005621 00000-0 19130-3 0 9993 2 20580 28.4674 236.5696 0001951 306.2372 53.8043 15.28122531760808 0 ISS (ZARYA) 1 25544U 98067A 25353.05456139 .00006809 00000-0 12867-3 0 9991 2 25544 51.6316 111.2076 0003177 269.7772 90.2853 15.49660414543830 0 CXO 1 25867U 99040B 25354.55178789 .00000629 00000-0 00000-0 0 9996 2 25867 53.1580 122.2771 8124205 310.8135 0.2560 0.37797284 16644 ...Continue Reading

[TLELIST] Current TLEs

December 19th 2025 PST

0 HST 1 20580U 90037B 25352.01685452 .00005621 00000-0 19130-3 0 9993 2 20580 28.4674 236.5696 0001951 306.2372 53.8043 15.28122531760808 0 ISS (ZARYA) 1 25544U 98067A 25353.05456139 .00006809 00000-0 12867-3 0 9991 2 25544 51.6316 111.2076 0003177 269.7772 90.2853 15.49660414543830 0 CXO 1 25867U 99040B 25354.55178789 .00000629 00000-0 00000-0 0 9996 2 25867 53.1580 122.2771 8124205 310.8135 0.2560 0.37797284 16644 ...Continue Reading

[TLELIST] Current TLEs

December 18th 2025 PST

0 HST 1 20580U 90037B 25352.01685464 .00005688 00000-0 19368-3 0 9992 2 20580 28.4674 236.5696 0001951 306.2447 53.7967 15.28122533760807 0 ISS (ZARYA) 1 25544U 98067A 25352.21621920 .00008098 00000-0 15154-3 0 9994 2 25544 51.6313 115.3593 0003170 265.6107 94.4519 15.49648163543704 0 CXO 1 25867U 99040B 25354.55178789 .00000629 00000-0 00000-0 0 9996 2 25867 53.1580 122.2771 8124205 310.8135 0.2560 0.37797284 16644 ...Continue Reading

[TLELIST] Current TLEs

December 17th 2025 PST

0 HST 1 20580U 90037B 25351.10253682 .00005953 00000-0 20311-3 0 9999 2 20580 28.4677 242.7933 0001895 295.0426 64.9973 15.28113078760661 0 ISS (ZARYA) 1 25544U 98067A 25351.05542497 .00007770 00000-0 14583-3 0 9997 2 25544 51.6309 121.1077 0003173 260.4156 99.6474 15.49629327543529 0 CXO 1 25867U 99040B 25351.90728450 .00000514 00000-0 00000-0 0 9991 2 25867 53.1169 122.3471 8128116 310.8350 0.1965 0.37801682 16634 ...Continue Reading

[TLELIST] Current TLEs

December 17th 2025 PST

0 HST 1 20580U 90037B 25351.10253682 .00005953 00000-0 20311-3 0 9999 2 20580 28.4677 242.7933 0001895 295.0426 64.9973 15.28113078760661 0 ISS (ZARYA) 1 25544U 98067A 25351.05542497 .00007770 00000-0 14583-3 0 9997 2 25544 51.6309 121.1077 0003173 260.4156 99.6474 15.49629327543529 0 CXO 1 25867U 99040B 25351.90728450 .00000514 00000-0 00000-0 0 9991 2 25867 53.1169 122.3471 8128116 310.8350 0.1965 0.37801682 16634 ...Continue Reading

[TLELIST] Current TLEs

December 16th 2025 PST

0 HST 1 20580U 90037B 25349.92697688 .00005667 00000-0 19308-3 0 9990 2 20580 28.4681 250.7951 0001831 280.0887 79.9502 15.28099791760489 0 ISS (ZARYA) 1 25544U 98067A 25349.89461712 .00006813 00000-0 12896-3 0 9998 2 25544 51.6305 126.8563 0003169 254.4589 105.6050 15.49611341543340 0 CXO 1 25867U 99040B 25351.90728450 .00000514 00000-0 00000-0 0 9991 2 25867 53.1169 122.3471 8128116 310.8350 0.1965 0.37801682 16634 ...Continue Reading

[TLELIST] Current TLEs

December 16th 2025 PST

0 HST 1 20580U 90037B 25349.92697688 .00005667 00000-0 19308-3 0 9990 2 20580 28.4681 250.7951 0001831 280.0887 79.9502 15.28099791760489 0 ISS (ZARYA) 1 25544U 98067A 25349.89461712 .00006813 00000-0 12896-3 0 9998 2 25544 51.6305 126.8563 0003169 254.4589 105.6050 15.49611341543340 0 CXO 1 25867U 99040B 25351.90728450 .00000514 00000-0 00000-0 0 9991 2 25867 53.1169 122.3471 8128116 310.8350 0.1965 0.37801682 16634 ...Continue Reading

[TLELIST] Current TLEs

December 15th 2025 PST

0 HST 1 20580U 90037B 25348.81671679 .00006498 00000-0 22258-3 0 9990 2 20580 28.4683 258.3524 0001798 266.6247 93.4143 15.28088062760316 0 ISS (ZARYA) 1 25544U 98067A 25348.86277765 .00007299 00000-0 13766-3 0 9993 2 25544 51.6306 131.9662 0003207 249.8734 110.1909 15.49595360543189 0 CXO 1 25867U 99040B 25349.26321703 .00000427 00000-0 00000-0 0 9990 2 25867 53.0917 122.4070 8132318 310.8570 0.2053 0.37806491 16624 ...Continue Reading